Time,TemperatureF,DewpointF,PressureIn,WindDirection,WindDirectionDegrees,WindSpeedMPH,WindSpeedGustMPH,Humidity,HourlyPrecipIn,Conditions,Clouds,dailyrainin,SoftwareType,DateUTC
2013-05-20 00:04:00,54.5,48.0,30.00,West,277,0.0,-999.0,79,-99.99,,,0.00,weatherlink.com 1.10,2013-05-20 07:04:00,
2013-05-20 00:19:00,54.1,48.0,30.00,West,277,0.0,-999.0,79,-99.99,,,0.00,weatherlink.com 1.10,2013-05-20 07:19:00,
2013-05-20 00:34:00,53.9,48.0,30.00,West,277,0.0,-999.0,80,-99.99,,,0.00,weatherlink.com 1.10,2013-05-20 07:34:00,
2013-05-20 00:50:00,53.9,48.0,30.00,West,277,0.0,-999.0,79,-99.99,,,0.00,weatherlink.com 1.10,2013-05-20 07:50:00,
2013-05-20 01:05:00,53.6,48.0,29.99,West,277,0.0,-999.0,80,-99.99,,,0.00,weatherlink.com 1.10,2013-05-20 08:05:00,
2013-05-20 01:20:00,53.8,48.0,29.99,West,277,0.0,-999.0,82,-99.99,,,0.00,weatherlink.com 1.10,2013-05-20 08:20:00,
2013-05-20 01:35:00,53.8,49.0,29.99,West,277,0.0,-999.0,84,-99.99,,,0.00,weatherlink.com 1.10,2013-05-20 08:35:00,
2013-05-20 01:50:00,53.6,49.0,29.98,West,277,0.0,-999.0,85,-99.99,,,0.00,weatherlink.com 1.10,2013-05-20 08:50:00,
2013-05-20 02:05:00,53.3,49.0,29.98,West,277,0.0,-999.0,85,-99.99,,,0.00,weatherlink.com 1.10,2013-05-20 09:05:00,
2013-05-20 02:20:00,53.1,49.0,29.98,West,277,0.0,-999.0,86,-99.99,,,0.00,weatherlink.com 1.10,2013-05-20 09:20:00,
2013-05-20 02:35:00,52.9,49.0,29.98,West,277,0.0,-999.0,87,-99.99,,,0.00,weatherlink.com 1.10,2013-05-20 09:35:00,
2013-05-20 02:50:00,52.9,49.0,29.99,West,277,0.0,-999.0,87,-99.99,,,0.00,weatherlink.com 1.10,2013-05-20 09:50:00,
2013-05-20 03:05:00,52.8,49.0,29.98,West,277,0.0,-999.0,88,-99.99,,,0.00,weatherlink.com 1.10,2013-05-20 10:05:00,
2013-05-20 03:20:00,52.5,49.0,29.98,West,277,0.0,-999.0,89,-99.99,,,0.00,weatherlink.com 1.10,2013-05-20 10:20:00,
2013-05-20 03:35:00,52.5,49.0,29.98,West,277,0.0,-999.0,89,-99.99,,,0.00,weatherlink.com 1.10,2013-05-20 10:35:00,
2013-05-20 03:50:00,52.2,49.0,29.98,West,277,0.0,-999.0,90,-99.99,,,0.00,weatherlink.com 1.10,2013-05-20 10:50:00,
2013-05-20 04:05:00,52.3,50.0,29.98,West,277,0.0,-999.0,91,-99.99,,,0.00,weatherlink.com 1.10,2013-05-20 11:05:00,
2013-05-20 04:20:00,52.2,50.0,29.98,West,277,0.0,-999.0,91,-99.99,,,0.00,weatherlink.com 1.10,2013-05-20 11:20:00,
2013-05-20 04:35:00,52.0,50.0,29.98,West,277,0.0,-999.0,91,-99.99,,,0.00,weatherlink.com 1.10,2013-05-20 11:35:00,
2013-05-20 04:50:00,51.7,49.0,29.98,West,277,0.0,-999.0,91,-99.99,,,0.00,weatherlink.com 1.10,2013-05-20 11:50:00,
2013-05-20 05:05:00,51.7,50.0,29.98,West,277,0.0,-999.0,92,-99.99,,,0.00,weatherlink.com 1.10,2013-05-20 12:05:00,
2013-05-20 05:20:00,51.6,49.0,29.97,West,277,0.0,-999.0,92,-99.99,,,0.00,weatherlink.com 1.10,2013-05-20 12:20:00,
2013-05-20 05:35:00,51.4,49.0,29.97,West,277,0.0,-999.0,92,-99.99,,,0.00,weatherlink.com 1.10,2013-05-20 12:35:00,
2013-05-20 05:50:00,51.3,49.0,29.98,West,277,0.0,-999.0,91,-99.99,,,0.00,weatherlink.com 1.10,2013-05-20 12:50:00,
2013-05-20 06:05:00,51.1,49.0,29.98,West,277,0.0,-999.0,92,-99.99,,,0.00,weatherlink.com 1.10,2013-05-20 13:05:00,
2013-05-20 06:20:00,51.1,49.0,29.98,West,277,0.0,-999.0,92,-99.99,,,0.00,weatherlink.com 1.10,2013-05-20 13:20:00,
2013-05-20 06:35:00,51.4,49.0,29.99,West,277,0.0,-999.0,92,-99.99,,,0.00,weatherlink.com 1.10,2013-05-20 13:35:00,
2013-05-20 06:50:00,51.6,49.0,29.99,West,277,0.0,-999.0,92,-99.99,,,0.00,weatherlink.com 1.10,2013-05-20 13:50:00,
2013-05-20 07:05:00,51.9,50.0,29.99,West,277,0.0,-999.0,92,-99.99,,,0.00,weatherlink.com 1.10,2013-05-20 14:05:00,
2013-05-20 07:20:00,52.8,51.0,29.99,West,277,0.0,-999.0,92,-99.99,,,0.00,weatherlink.com 1.10,2013-05-20 14:20:00,
2013-05-20 07:35:00,53.8,52.0,29.99,West,277,0.0,-999.0,92,-99.99,,,0.00,weatherlink.com 1.10,2013-05-20 14:35:00,
2013-05-20 07:50:00,56.6,54.0,29.99,West,277,0.0,-999.0,92,-99.99,,,0.00,weatherlink.com 1.10,2013-05-20 14:50:00,
2013-05-20 08:05:00,60.1,55.0,29.99,West,277,0.0,-999.0,84,-99.99,,,0.00,weatherlink.com 1.10,2013-05-20 15:05:00,
2013-05-20 08:20:00,63.2,54.0,29.99,West,277,0.0,-999.0,71,-99.99,,,0.00,weatherlink.com 1.10,2013-05-20 15:20:00,
2013-05-20 08:35:00,65.5,52.0,29.99,West,277,0.0,-999.0,62,-99.99,,,0.00,weatherlink.com 1.10,2013-05-20 15:35:00,
2013-05-20 08:50:00,67.1,52.0,29.99,West,277,0.0,-999.0,59,-99.99,,,0.00,weatherlink.com 1.10,2013-05-20 15:50:00,
2013-05-20 09:05:00,68.3,53.0,30.00,West,277,0.0,-999.0,58,-99.99,,,0.00,weatherlink.com 1.10,2013-05-20 16:05:00,
2013-05-20 09:20:00,69.9,52.0,30.00,West,277,0.0,-999.0,53,-99.99,,,0.00,weatherlink.com 1.10,2013-05-20 16:20:00,
2013-05-20 09:35:00,72.1,53.0,30.00,South,169,0.0,-999.0,51,-99.99,,,0.00,weatherlink.com 1.10,2013-05-20 16:35:00,
2013-05-20 09:51:00,73.3,53.0,29.99,South,183,0.0,-999.0,50,-99.99,,,0.00,weatherlink.com 1.10,2013-05-20 16:51:00,
2013-05-20 10:06:00,74.9,55.0,29.99,South,183,0.0,-999.0,50,-99.99,,,0.00,weatherlink.com 1.10,2013-05-20 17:06:00,
2013-05-20 10:21:00,75.1,56.0,29.99,WSW,252,0.0,-999.0,51,-99.99,,,0.00,weatherlink.com 1.10,2013-05-20 17:21:00,
2013-05-20 10:36:00,75.1,55.0,29.99,SW,232,0.0,-999.0,49,-99.99,,,0.00,weatherlink.com 1.10,2013-05-20 17:36:00,
2013-05-20 10:51:00,75.6,55.0,29.99,SW,232,0.0,-999.0,49,-99.99,,,0.00,weatherlink.com 1.10,2013-05-20 17:51:00,
2013-05-20 11:05:00,76.8,54.0,29.99,WSW,257,0.0,-999.0,46,-99.99,,,0.00,weatherlink.com 1.10,2013-05-20 18:05:00,
2013-05-20 11:21:00,78.5,53.0,30.00,SW,235,0.0,-999.0,42,-99.99,,,0.00,weatherlink.com 1.10,2013-05-20 18:21:00,
2013-05-20 11:35:00,78.3,53.0,30.00,WSW,257,1.0,-999.0,41,-99.99,,,0.00,weatherlink.com 1.10,2013-05-20 18:35:00,
2013-05-20 11:51:00,79.4,52.0,29.99,SW,218,0.0,-999.0,39,-99.99,,,0.00,weatherlink.com 1.10,2013-05-20 18:51:00,
2013-05-20 12:06:00,80.5,48.0,29.99,SW,236,0.0,-999.0,32,-99.99,,,0.00,weatherlink.com 1.10,2013-05-20 19:06:00,
2013-05-20 12:21:00,80.7,48.0,29.99,SW,225,1.0,-999.0,32,-99.99,,,0.00,weatherlink.com 1.10,2013-05-20 19:21:00,
2013-05-20 12:36:00,79.8,47.0,29.99,SW,234,1.0,-999.0,32,-99.99,,,0.00,weatherlink.com 1.10,2013-05-20 19:36:00,
2013-05-20 12:51:00,79.8,47.0,30.00,WSW,241,0.0,-999.0,32,-99.99,,,0.00,weatherlink.com 1.10,2013-05-20 19:51:00,
2013-05-20 13:06:00,79.9,47.0,30.00,West,259,0.0,-999.0,32,-99.99,,,0.00,weatherlink.com 1.10,2013-05-20 20:06:00,
2013-05-20 13:21:00,79.2,46.0,30.00,WSW,247,2.0,-999.0,31,-99.99,,,0.00,weatherlink.com 1.10,2013-05-20 20:21:00,
2013-05-20 13:36:00,78.5,48.0,29.99,WSW,256,0.0,-999.0,34,-99.99,,,0.00,weatherlink.com 1.10,2013-05-20 20:36:00,
2013-05-20 13:51:00,79.4,49.0,29.99,SSW,196,1.0,-999.0,35,-99.99,,,0.00,weatherlink.com 1.10,2013-05-20 20:51:00,
2013-05-20 14:06:00,78.6,51.0,29.99,WSW,251,2.0,-999.0,38,-99.99,,,0.00,weatherlink.com 1.10,2013-05-20 21:06:00,
2013-05-20 14:21:00,76.7,51.0,29.99,WSW,252,0.0,-999.0,41,-99.99,,,0.00,weatherlink.com 1.10,2013-05-20 21:21:00,
2013-05-20 14:36:00,76.0,51.0,29.99,WSW,238,1.0,-999.0,42,-99.99,,,0.00,weatherlink.com 1.10,2013-05-20 21:36:00,
2013-05-20 14:51:00,75.3,49.0,29.99,WSW,245,0.0,-999.0,40,-99.99,,,0.00,weatherlink.com 1.10,2013-05-20 21:51:00,
2013-05-20 15:06:00,76.5,46.0,29.98,SSW,204,0.0,-999.0,34,-99.99,,,0.00,weatherlink.com 1.10,2013-05-20 22:06:00,
2013-05-20 15:21:00,77.6,48.0,29.98,WSW,243,0.0,-999.0,35,-99.99,,,0.00,weatherlink.com 1.10,2013-05-20 22:21:00,
2013-05-20 15:36:00,76.7,49.0,29.98,West,260,0.0,-999.0,38,-99.99,,,0.00,weatherlink.com 1.10,2013-05-20 22:36:00,
2013-05-20 15:51:00,75.8,47.0,29.98,West,260,0.0,-999.0,36,-99.99,,,0.00,weatherlink.com 1.10,2013-05-20 22:51:00,
2013-05-20 16:06:00,77.7,49.0,29.97,South,174,1.0,-999.0,36,-99.99,,,0.00,weatherlink.com 1.10,2013-05-20 23:06:00,
2013-05-20 16:21:00,78.3,47.0,29.97,SE,131,3.0,-999.0,33,-99.99,,,0.00,weatherlink.com 1.10,2013-05-20 23:21:00,
2013-05-20 16:36:00,75.1,50.0,29.97,WSW,252,2.0,-999.0,42,-99.99,,,0.00,weatherlink.com 1.10,2013-05-20 23:36:00,
2013-05-20 16:51:00,73.2,51.0,29.97,SW,221,0.0,-999.0,46,-99.99,,,0.00,weatherlink.com 1.10,2013-05-20 23:51:00,
2013-05-20 17:21:00,70.9,50.0,29.96,South,187,1.0,-999.0,48,-99.99,,,0.00,weatherlink.com 1.10,2013-05-21 00:21:00,
2013-05-20 17:36:00,70.9,50.0,29.96,South,180,0.0,-999.0,47,-99.99,,,0.00,weatherlink.com 1.10,2013-05-21 00:36:00,
2013-05-20 17:51:00,69.8,51.0,29.96,SSE,156,2.0,-999.0,52,-99.99,,,0.00,weatherlink.com 1.10,2013-05-21 00:51:00,
2013-05-20 18:06:00,66.6,50.0,29.96,SSW,210,1.0,-999.0,56,-99.99,,,0.00,weatherlink.com 1.10,2013-05-21 01:06:00,
2013-05-20 18:22:00,64.8,50.0,29.96,SW,231,0.0,-999.0,59,-99.99,,,0.00,weatherlink.com 1.10,2013-05-21 01:22:00,
2013-05-20 18:37:00,64.0,51.0,29.96,WSW,240,0.0,-999.0,64,-99.99,,,0.00,weatherlink.com 1.10,2013-05-21 01:37:00,
2013-05-20 18:52:00,62.1,51.0,29.96,WSW,252,2.0,-999.0,66,-99.99,,,0.00,weatherlink.com 1.10,2013-05-21 01:52:00,
2013-05-20 19:07:00,61.2,50.0,29.96,SSW,194,2.0,-999.0,68,-99.99,,,0.00,weatherlink.com 1.10,2013-05-21 02:07:00,
2013-05-20 19:22:00,61.0,51.0,29.96,ESE,113,0.0,-999.0,69,-99.99,,,0.00,weatherlink.com 1.10,2013-05-21 02:22:00,
2013-05-20 19:37:00,60.1,50.0,29.96,SW,223,0.0,-999.0,70,-99.99,,,0.00,weatherlink.com 1.10,2013-05-21 02:37:00,
2013-05-20 19:52:00,58.3,50.0,29.96,SW,229,0.0,-999.0,74,-99.99,,,0.00,weatherlink.com 1.10,2013-05-21 02:52:00,
2013-05-20 20:07:00,57.0,50.0,29.96,WSW,244,0.0,-999.0,77,-99.99,,,0.00,weatherlink.com 1.10,2013-05-21 03:07:00,
2013-05-20 20:22:00,56.2,49.0,29.97,SSW,203,0.0,-999.0,78,-99.99,,,0.00,weatherlink.com 1.10,2013-05-21 03:22:00,
2013-05-20 20:37:00,55.4,49.0,29.97,SSW,200,1.0,-999.0,79,-99.99,,,0.00,weatherlink.com 1.10,2013-05-21 03:37:00,
2013-05-20 20:52:00,55.0,49.0,29.96,West,267,0.0,-999.0,81,-99.99,,,0.00,weatherlink.com 1.10,2013-05-21 03:52:00,
2013-05-20 21:07:00,54.5,49.0,29.96,West,272,0.0,-999.0,82,-99.99,,,0.00,weatherlink.com 1.10,2013-05-21 04:07:00,
2013-05-20 21:22:00,54.5,49.0,29.96,West,272,0.0,-999.0,82,-99.99,,,0.00,weatherlink.com 1.10,2013-05-21 04:22:00,
2013-05-20 21:37:00,54.4,49.0,29.97,SSE,152,0.0,-999.0,82,-99.99,,,0.00,weatherlink.com 1.10,2013-05-21 04:37:00,
2013-05-20 21:52:00,54.2,49.0,29.97,SSW,205,0.0,-999.0,82,-99.99,,,0.00,weatherlink.com 1.10,2013-05-21 04:52:00,
2013-05-20 22:07:00,54.2,49.0,29.98,SSE,159,0.0,-999.0,82,-99.99,,,0.00,weatherlink.com 1.10,2013-05-21 05:07:00,
2013-05-20 22:22:00,54.2,49.0,29.97,South,173,0.0,-999.0,82,-99.99,,,0.00,weatherlink.com 1.10,2013-05-21 05:22:00,
2013-05-20 22:37:00,54.1,49.0,29.97,South,173,0.0,-999.0,82,-99.99,,,0.00,weatherlink.com 1.10,2013-05-21 05:37:00,
2013-05-20 22:52:00,53.9,49.0,29.96,SSE,149,0.0,-999.0,83,-99.99,,,0.00,weatherlink.com 1.10,2013-05-21 05:52:00,
2013-05-20 23:07:00,53.9,49.0,29.96,WSW,241,1.0,-999.0,82,-99.99,,,0.00,weatherlink.com 1.10,2013-05-21 06:07:00,
2013-05-20 23:22:00,53.8,48.0,29.96,South,185,0.0,-999.0,81,-99.99,,,0.00,weatherlink.com 1.10,2013-05-21 06:22:00,
2013-05-20 23:37:00,53.6,48.0,29.96,South,185,0.0,-999.0,82,-99.99,,,0.00,weatherlink.com 1.10,2013-05-21 06:37:00,
2013-05-20 23:52:00,53.3,48.0,29.95,South,174,0.0,-999.0,82,-99.99,,,0.00,weatherlink.com 1.10,2013-05-21 06:52:00,